Miscellaneous Local Product
Issued by NWS Hastings, NE

Home | Current Version | Previous Version | Graphics & Text | Print | Product List | Glossary On
Versions: 1 2 3 4 5 6 7 8 9 10 11 12 13 14 15 16 17 18 19 20 21 22 23 24 25 26 27 28 29 30 31 32 33 34 35 36 37 38 39 40 41 42 43 44 45 46 47 48 49 50
000
AXUS43 KGID 231402
MISGRI

GID CWA HOURLY WEATHER ROUNDUP
NATIONAL WEATHER SERVICE HASTINGS NE
900 AM CDT SAT SEP 23 2017

NOTE: "FAIR" INDICATES FEW OR NO CLOUDS BELOW 12,000 FEET WITH NO
SIGNIFICANT WEATHER AND/OR OBSTRUCTIONS TO VISIBILITY.

...SOUTH CENTRAL NEBRASKA...

CITY           SKY/WX    TMP DP  RH WIND       PRES   REMARKS
GRAND ISLAND   CLOUDY    69  68  96 E5        29.94S
HASTINGS       PTSUNNY   73  64  73 S6        29.94R
KEARNEY        MOSUNNY   71  65  81 VRB3      29.93R
ORD            CLOUDY    57  52  83 NE6       29.93F
YORK           PTSUNNY   72  66  83 S9        29.94R
AURORA         CLOUDY    72  68  86 S6        29.94S
LEXINGTON      CLOUDY    63  56  78 E7        29.92S
HOLDREGE       CLOUDY    72  64  77 S8        29.91S
HEBRON         PTSUNNY   75  66  73 S10G16    29.94R

...NEBRASKA PANHANDLE...

CITY           SKY/WX    TMP DP  RH WIND       PRES   REMARKS
CHADRON        CLOUDY    45  41  86 NE7       30.05R
ALLIANCE       CLOUDY    43  42  97 NE8       30.01R FOG
SCOTTSBLUFF    CLOUDY    46  39  76 N7        30.01S
SIDNEY         CLOUDY    45  42  89 N12       30.02R

...WESTERN AND NORTH CENTRAL NEBRASKA...

CITY           SKY/WX    TMP DP  RH WIND       PRES   REMARKS
VALENTINE      TSTM      49  47  93 N17       29.99F VSB 1
AINSWORTH      RAIN      48  48 100 N13       29.99S
ONEILL         CLOUDY    54  53  99 NE6       29.98R
BROKEN BOW     CLOUDY    54  50  86 N9        29.95R
IMPERIAL       CLOUDY    53  48  83 N13       29.93R
NORTH PLATTE   CLOUDY    52  50  93 NE12      29.94S
MCCOOK         CLOUDY    72  66  81 E8        29.88R

...EASTERN NEBRASKA...

CITY           SKY/WX    TMP DP  RH WIND       PRES   REMARKS
NORFOLK        CLOUDY    61  59  93 E6        29.93F
SO SIOUX CITY  MOSUNNY   62  60  93 NW5       29.96R
TEKAMAH        MOSUNNY   74  68  81 SE9       29.95R
COLUMBUS       CLOUDY    73  67  81 S5        29.96R
ALBION         PTSUNNY   61  57  88 NE6       29.95S
OMAHA EPPLEY   PTSUNNY   76  67  73 SE12      29.97R
OFFUTT AFB     SUNNY     74  67  79 SE12      29.97R
MILLARD        SUNNY     75  69  81 SE8       29.97R
LINCOLN        SUNNY     75  67  76 S9        29.95R
NEBRASKA CITY  SUNNY     74  71  92 S9        29.99R
BEATRICE       SUNNY     75  67  77 S7        29.97R
FALLS CITY     SUNNY     75  68  78 SE8       29.98R

...NORTHERN KANSAS...

CITY           SKY/WX    TMP DP  RH WIND       PRES   REMARKS
GOODLAND       CLOUDY    56  50  80 NW10      29.91R
HILL CITY      SUNNY     75  66  73 S9        29.89R
NORTON         MOSUNNY   73  61  64 SE13      29.87S
PHILLIPSBURG   SUNNY     75  64  69 SE13G22   29.89S
SMITH CENTER   SUNNY     73  63  68 S15       29.91R
HAYS           SUNNY     75  65  70 S16       29.91S
RUSSELL        MOSUNNY   75  64  68 S18       29.90S
CONCORDIA      MOSUNNY   75  66  73 S15G23    29.93R
SALINA         SUNNY     79  64  60 S13       29.94S
TOPEKA         SUNNY     75  69  81 SE3       30.00R



USA.gov is the U.S. government's official web portal to all federal, state and local government web resources and services.